Hourly Weather Roundup
Issued by NWS Central Illinois

Home | Current Version | Previous Version | Text Only | Print | Product List | Glossary On
Versions: 1 2 3 4 5 6 7 8 9 10 11 12 13 14 15 16 17 18 19 20 21 22 23 24 25 26 27 28 29 30 31 32 33 34 35 36 37 38 39 40 41 42 43 44 45 46 47 48 49 50
000
NZUS43 KILX 130010
HWRILX

AREA WEATHER ROUNDUP
NATIONAL WEATHER SERVICE, LINCOLN IL
700 PM CDT SAT JUL 12 2014


CITY           SKY/WX    TMP DP  RH WIND       PRES   REMARKS
BLOOMINGTON    MOSUNNY   83  73  71 S15       29.97F HX  89
CHAMPAIGN      SUNNY     83  77  82 S8        29.99F HX  92
6HR MIN TEMP:  76; 6HR MAX TEMP:  84;

DECATUR        MOSUNNY   86  76  71 S10       29.98F HX  96
6HR MIN TEMP:  82; 6HR MAX TEMP:  87;

EFFINGHAM      MOSUNNY   86  72  62 S6        30.01F HX  92
FLORA          MOSUNNY   86  74  68 S9        30.03F HX  94
6HR MIN TEMP:  81; 6HR MAX TEMP:  89;

GALESBURG      MOSUNNY   84  76  74 S7        29.92S HX  93
JACKSONVILLE   MOSUNNY   88  75  65 S10       29.97F HX  98
6HR MIN TEMP:  86; 6HR MAX TEMP:  90;

LACON          PTSUNNY   83  74  73 S7        29.90F HX  90
6HR MIN TEMP:  76; 6HR MAX TEMP:  86;

LAWRENCEVILLE  MOSUNNY   84  74  71 S9        30.04F HX  91
6HR MIN TEMP:  77; 6HR MAX TEMP:  86;

LITCHFIELD     MOSUNNY   85  76  73 SW7       30.00F HX  94
$$


CITY           SKY/WX    TMP DP  RH WIND       PRES   REMARKS
LINCOLN        MOSUNNY   88  73  61 S7        29.92F HX  95
6HR MIN TEMP:  85; 6HR MAX TEMP:  90;

MACOMB         SUNNY     86  73  65 S8G22     29.94F HX  93
MATTOON        MOSUNNY   84  76  76 S9        30.00F HX  93
6HR MIN TEMP:  78; 6HR MAX TEMP:  84;

MT CARMEL AP   MOSUNNY   86  75  70 S9        30.03F HX  95
OLNEY-NOBLE AP MOSUNNY   82  77  83 S7        30.03F HX  91
PARIS          PTSUNNY   81  75  81 S8        30.02F HX  87
6HR MIN TEMP:  72; 6HR MAX TEMP:  82; 6HR PCP:  0.01;

PEORIA         MOSUNNY   87  74  64 S15       29.92F HX  95
6HR MIN TEMP:  81; 6HR MAX TEMP:  90;

PONTIAC        PTSUNNY   84  77  79 S13       29.93F HX  94
RANTOUL        SUNNY     84  74  73 S9G16     29.99F HX  91
6HR MIN TEMP:  77; 6HR MAX TEMP:  84;

ROBINSON       MOSUNNY   85  76  72 S9        30.04F HX  95
6HR MIN TEMP:  78; 6HR MAX TEMP:  88;

SPRINGFIELD    MOSUNNY   88  75  65 S12       29.96F HX  97
6HR MIN TEMP:  86; 6HR MAX TEMP:  90;

TAYLORVILLE    MOSUNNY   84  73  70 S8        29.98F HX  91
$$

...REGIONAL REPORTS...


CITY           SKY/WX    TMP DP  RH WIND       PRES   REMARKS
CHICAGO O`HARE CLOUDY    79  70  74 SW3       29.93F HX  82
KANKAKEE       PTSUNNY   81  76  85 S10       29.95F HX  87
MOLINE         PTSUNNY   84  74  71 S6        29.89F HX  91
MOUNT VERNON   MOSUNNY   88  73  62 S9        30.04F HX  96
PITTSFIELD     MOSUNNY   87  73  62 S6        29.96F HX  94
QUINCY         SUNNY     87  73  62 S12       29.94F HX  94
ROCKFORD       CLOUDY    80  71  74 S6        29.91F HX  84
$$


CITY           SKY/WX    TMP DP  RH WIND       PRES   REMARKS
BURLINGTON     MOSUNNY   86  74  67 SW13      29.91S HX  94
CEDAR RAPIDS   PTSUNNY   79  67  66 CALM      29.88S HX  81
DES MOINES     CLOUDY    81  72  74 N9        29.93R HX  85
KIRKSVILLE     SUNNY     85  73  67 SW13      29.95F HX  91
OTTUMWA        PTSUNNY   83  73  72 W5        29.89R HX  89
ST LOUIS       CLOUDY    93  69  45 S10       30.01F HX  98
$$


CITY           SKY/WX    TMP DP  RH WIND       PRES   REMARKS
TERRE HAUTE    CLOUDY    80  73  79 S12       30.03F HX  84
EVANSVILLE     SUNNY     83  73  72 SW12      30.06F HX  89
INDIANAPOLIS   CLOUDY    77  70  79 SW12      30.03F
LAFAYETTE      CLOUDY    77  72  84 S7        29.99F
MADISON        CLOUDY    77  72  84 S7        29.90F
MILWAUKEE      LGT RAIN  75  71  87 S6        29.91F
$$




USA.gov is the U.S. government's official web portal to all federal, state and local government web resources and services.